STARLINK-5059 (53912 NORAD) Tracking and Keplerian Element Data

This shows tracking and keplerian element data for the satellite.

Feedback or suggestion? Click here.




ElementValue
Catalog53912
NameSTARLINK-5059
Epoch Orbit130
Epoch Day324.91667824
Epoch Year2022
RAAN331.1485
Inclination53.2129
Eccentricity0.0003754
Argument of Perigee347.5996
Mean Anonmoly25.4039
Mean Motion15.73147546
Decay Rate0.0002327
L11 53912U 22119AC 22324.91667824 .00023270 00000+0 17010-3 0 9996
L22 53912 53.2129 331.1485 0003754 347.5996 25.4039 15.73147546 1301



Live tracking and technical data element details for STARLINK-5059 (NORAD 53912). STARLINK-5059 can be tracked NOW for your location showing map with azimuth and elevation plus other details from your city location.







IsCatalogInMostPopularTable: catalog: 53912, numindb: 1
Update: records affected: 1



GetName: 53912 STARLINK-5059

Hit Count: updated at: Fri, 09 Dec 2022 20:26:43 GMT